This is the latest recevied weather packets stored in our database for station/object WX5RP. If no packets are shown the sender has not sent any weather packets the latest 10 day(s).
| Time | Temp. | Humidity | Pressure | Rain* | Wind** | Luminosity | Snow |
|---|---|---|---|---|---|---|---|
| 1788140416 | 23.33° C | 12% | 1017.2 hPa | 0 mm | - | 55 W/m² | - |
| 1788139816 | 23.33° C | 13% | 1016.9 hPa | 0 mm | - | 46 W/m² | - |
| 1788139216 | 23.33° C | 14% | 1016.8 hPa | 0 mm | - | 58 W/m² | - |
| 1788138616 | 23.89° C | 12% | 1017.1 hPa | 0 mm | - | 111 W/m² | - |
| 1788138016 | 24.44° C | 10% | 1017 hPa | 0 mm | - | 180 W/m² | - |
| 1788137416 | 24.44° C | 9% | 1017.1 hPa | 0 mm | - | 268 W/m² | - |
| 1788136816 | 23.89° C | 11% | 1017.2 hPa | 0 mm | - | 306 W/m² | - |
| 1788136216 | 24.44° C | 14% | 1017.3 hPa | 0 mm | - | 372 W/m² | - |
| 1788135616 | 25° C | 11% | 1017.2 hPa | 0 mm | - | 399 W/m² | - |
| 1788135016 | 25° C | 10% | 1017.8 hPa | 0 mm | - | 415 W/m² | - |
| 1788134416 | 24.44° C | 9% | 1017.8 hPa | 0 mm | - | 451 W/m² | - |
| 1788133817 | 24.44° C | 12% | 1017.8 hPa | 0 mm | - | 509 W/m² | - |
| 1788133216 | 24.44° C | 12% | 1017.9 hPa | 0 mm | - | 541 W/m² | - |
| 1788132616 | 24.44° C | 12% | 1017.9 hPa | 0 mm | - | 571 W/m² | - |
| 1788132015 | 24.44° C | 10% | 1017.7 hPa | 0 mm | - | 599 W/m² | - |
| 1788131416 | 24.44° C | 12% | 1018 hPa | 0 mm | - | 630 W/m² | - |
| 1788130815 | 23.89° C | 14% | 1018.1 hPa | 0 mm | - | 659 W/m² | - |
| 1788130215 | 23.33° C | 16% | 1018.4 hPa | 0 mm | - | 681 W/m² | - |
| 1788129615 | 23.33° C | 15% | 1018.6 hPa | 0 mm | - | 712 W/m² | - |
| 1788129015 | 23.89° C | 14% | 1018.8 hPa | 0 mm | - | 735 W/m² | - |
| 1788128415 | 23.33° C | 16% | 1019.2 hPa | 0 mm | - | 762 W/m² | - |
| 1788127815 | 23.33° C | 15% | 1018.8 hPa | 0 mm | - | 780 W/m² | - |
| 1788127217 | 22.78° C | 15% | 1018.5 hPa | 0 mm | - | 799 W/m² | - |
| 1788126617 | 23.33° C | 15% | 1018.8 hPa | 0 mm | - | 48 W/m² | - |
| 1788126017 | 22.78° C | 17% | 1019.4 hPa | 0 mm | - | 839 W/m² | - |
* Rain latest hour (hover to see other rain measurements)
** Current wind speed in m/s (hover to see current wind gust speed)